STARLINK-1190, 45083

Orbit data source: Space-Track

STARLINK-1190, 45083 is a payload satellite owned by SpaceX/Seattle (US) in LEO that was launched on Wed, 29 Jan 2020 UTC via an FALCON 9 launch vehicle from the Air Force Eastern Test Range (AFETR). Payload-class satellites include a variety of spacecraft equipped with specific instruments for various scientific and technological missions. These include communications satellites like Starlink; space stations such as the ISS; scientific satellites like the Hubble; Earth observation satellites from companies like Planet Labs, Umbra, and HawkEye 360; GPS; miniature CubeSats for education and research; and military/defense satellites.

Not visible in the next 10 days
Identifier
45083, 2020-006AR
Orbit
LEO
Country
Flag of USUS
Related business
Manufacturer
SpaceX/Seattle
Mission
Partially operational Commercial Communications
Bus & Motor
STARLINK, Unknown motor
Mass
260 kg wet, ~248 kg dry
Launch date (UTC)
2020-01-29 (6 years ago)
Launch vehicle
FALCON 9
Launch site
Air Force Eastern Test Range (AFETR)
Object type
Payload
Rocket body
Debris
Shape & HBR
Box + 1 Pan, 10.1 m
Radar Cross Section
13.562 m², Large (>1 m²)

Expand to show TLE details & history
Last TLE update: 14 hours ago

TLE from 14 hours ago
0 STARLINK-1190
1 45083U 20006AR  25318.43332469  .00643108  20312-3  10718-2 0  9993
2 45083  53.0362   5.7981 0006368 352.3638   7.7294 16.02354686320188
Epoch: 2025-11-14T10:23Z
TLE epoch observation values (Epoch: 2025-11-14T10:23:59.253Z)
Latitude
-0.00003°
Longitude
156.0243°
Altitude
264.62 km
Speed
7.752 km/s
True Right ascension
00h 23m 11s
True Declination
0° 00' 00"
Sunlit
Object was in full shadow at epoch
Visualization orbit readout
Latitude
Unknown
Longitude
Unknown
Altitude
Unknown
Speed
Unknown
Apparent Right ascension
Unknown
Apparent Declination
Unknown
Sunlit
N/A
Visualization observer readout
Local Sidereal Time
21:05:51
Azimuth
Unknown
Elevation
Unknown
Doppler factor
Unknown
Orbital elements
Apogee altitude
272.417 km
Perigee altitude
263.952 km
Semi-major axis
6,646.322 km
Eccentricity
0.00064
Inclination
53.0362°
RAAN
5.7981°
Arg. of periapsis
352.3638°
True anomaly
7.73922°
Mean anomaly
7.7294°
Eccentric anomaly
7.73431°
Mean motion
4.00563 °/min
Orbital period
89.87 mins
BSTAR
0.0010718
Loading maneuver chart data...
Computing Atmospheric mass density...

Documentation

Showing up to 5 results
|